GFSFLT2_850_thetae_081.txt.gz
Theta_e
324 324 323 323 324 326 329 332 332 333 332 334 335 336 335 338 335 334 333 333 333 332 330 329 333 332 329 331 333 332 333 332
330 324 324 324 324 326 330 332 333 332 332 331 332 334 334 334 334 333 333 332 332 332 328 328 333 331 329 331 331 331 332 330
327 326 325 326 324 329 330 333 333 332 331 331 331 332 333 333 330 331 333 332 331 330 326 328 331 330 329 331 330 328 329 329
342 328 326 325 339 343 337 337 334 333 333 333 331 332 333 333 328 327 327 330 328 327 326 326 329 330 330 330 326 329 327 327
343 333 327 325 334 338 339 339 339 336 336 335 332 333 333 331 328 329 326 330 328 326 326 326 329 329 329 328 328 327 326 326
342 342 338 333 337 337 339 337 336 337 334 335 335 333 333 331 331 329 330 328 327 327 326 328 329 328 329 327 327 325 325 325
341 341 339 326 321 328 334 338 339 337 335 334 334 333 332 331 330 330 329 326 326 327 326 328 328 329 327 326 325 325 324 325
340 341 330 325 321 324 330 331 335 332 333 333 334 333 333 331 328 327 326 326 327 327 328 328 327 328 327 325 324 324 323 322
340 341 333 327 323 321 326 329 334 336 332 332 332 332 331 329 329 326 324 325 326 326 328 327 328 327 325 324 324 322 321 322
340 340 333 330 326 325 321 327 333 332 333 331 331 331 331 331 329 325 325 325 327 328 327 327 326 326 324 324 323 321 320 321
339 339 331 328 327 322 321 326 328 334 334 332 329 329 330 330 327 326 325 325 327 326 326 326 326 325 323 323 322 321 320 320
339 338 336 334 326 322 322 322 327 327 327 328 329 329 330 328 328 326 326 325 326 325 323 325 326 324 323 323 322 321 320 319
339 337 336 333 326 323 320 321 326 324 326 327 327 328 328 328 329 327 326 325 326 325 323 325 323 323 323 322 322 322 321 320
338 337 335 332 329 326 322 325 327 326 327 326 327 327 327 325 326 327 327 326 326 325 323 323 323 323 322 322 322 321 321 320
338 336 334 330 331 328 324 324 328 326 327 327 326 327 326 326 325 326 327 326 325 323 321 322 323 323 322 322 322 321 321 321
337 336 334 332 331 328 325 328 326 328 326 327 326 327 327 326 325 326 324 325 325 318 322 322 322 322 323 322 321 320 321 323
336 335 334 333 332 331 329 328 329 328 327 326 325 325 325 324 325 325 326 326 325 325 321 321 322 322 323 323 321 321 322 322
335 335 334 333 333 331 329 328 328 328 327 326 325 326 325 323 325 325 325 326 325 324 320 319 322 322 322 322 322 322 323 321
335 335 333 333 332 330 328 328 328 326 326 326 325 326 325 323 323 324 325 325 324 324 322 321 322 322 322 321 321 322 322 321
335 334 332 332 332 330 328 327 328 329 328 326 325 325 325 323 324 324 324 324 322 324 321 321 322 322 321 321 322 321 320 320

GFSFLT2_850_thetae_084.txt.gz
Theta_e
324 324 323 323 322 323 325 328 331 332 332 338 336 339 338 337 337 335 336 335 334 333 332 329 330 330 331 332 332 333 333 333
324 324 323 323 323 323 323 326 331 332 333 333 333 335 336 337 334 327 325 332 334 333 332 330 331 331 330 331 332 332 332 330
327 325 324 324 324 324 322 326 330 333 332 332 332 333 333 335 333 328 330 326 333 333 331 328 328 330 327 330 331 331 332 330
334 327 325 325 329 324 320 326 331 333 332 332 331 331 331 333 333 332 328 329 330 332 327 326 328 329 326 327 329 329 329 329
344 339 328 327 337 330 325 335 336 335 334 333 333 332 331 333 333 329 327 326 326 328 328 325 326 328 327 327 327 329 329 329
344 343 338 328 329 327 325 336 336 336 335 335 335 334 333 332 332 330 328 327 328 328 326 325 324 329 328 328 328 327 327 327
342 342 341 333 338 329 324 339 336 335 336 335 335 334 333 333 331 328 328 327 327 328 327 327 325 328 329 327 327 325 326 325
341 342 342 341 333 324 320 331 339 336 336 335 335 334 333 332 331 331 329 327 329 328 327 326 326 327 326 328 325 325 325 324
339 341 342 340 331 324 320 321 328 335 333 334 334 333 333 333 331 330 330 330 329 326 326 327 327 327 326 325 324 324 323 322
340 340 341 338 328 325 321 319 321 329 331 334 333 332 332 332 332 330 329 327 327 326 327 327 327 326 326 325 324 323 321 321
339 339 341 337 335 333 325 320 322 323 335 335 332 332 331 331 330 330 329 326 325 325 325 326 327 326 325 323 323 320 321 322
338 340 340 336 336 332 325 320 322 324 327 329 330 331 330 329 330 330 328 325 325 325 327 327 326 326 323 323 322 321 320 320
338 339 339 336 336 330 324 322 322 322 328 329 330 329 329 329 330 329 327 326 326 325 327 325 326 324 323 323 322 321 319 320
337 339 339 336 335 327 326 325 323 322 321 327 326 327 328 329 328 328 327 327 325 325 325 325 326 323 322 322 322 321 320 320
338 339 337 336 333 331 329 328 328 330 329 328 326 326 328 327 327 326 329 327 326 326 325 323 323 324 323 322 321 321 320 320
338 340 337 336 333 331 329 326 323 324 326 327 327 327 328 327 327 327 327 324 326 326 325 321 322 324 322 321 320 320 320 321
338 339 337 335 333 332 329 326 324 324 327 327 327 327 327 326 328 327 325 325 326 326 326 323 322 323 322 322 320 321 321 319
337 338 336 334 333 332 330 328 328 326 328 327 329 327 326 326 324 324 325 324 323 325 325 321 320 323 322 321 322 321 322 323
336 337 336 334 333 333 331 329 329 327 327 328 327 325 325 325 324 324 325 324 325 324 322 321 321 321 321 322 323 322 321 322
337 337 335 334 333 332 331 329 326 327 327 326 326 325 326 325 323 323 324 325 324 325 325 320 321 321 322 322 322 322 322 321

GFSFLT2_850_thetae_087.txt.gz
Theta_e
327 322 321 322 321 322 322 321 323 328 331 331 337 338 339 337 336 336 336 336 334 333 332 333 329 331 332 333 333 334 334 333
328 324 323 322 322 322 322 321 323 327 330 332 339 337 338 338 337 336 336 332 328 333 333 332 330 330 332 332 333 332 332 332
328 325 323 323 323 323 323 321 322 326 330 332 333 332 333 335 337 334 330 327 326 328 334 331 328 329 330 331 330 330 330 330
333 328 325 324 324 324 323 321 322 326 330 331 331 331 332 332 333 333 328 327 327 328 333 329 328 329 328 328 329 330 328 329
340 337 329 325 324 325 325 320 326 329 330 331 331 331 331 331 332 332 330 328 327 326 330 328 327 329 327 327 330 330 330 329
340 339 336 329 325 326 328 325 332 332 334 333 333 333 332 331 331 333 331 328 327 328 328 325 327 328 326 326 328 329 328 329
340 339 339 337 327 328 329 327 335 333 334 334 334 334 334 332 332 332 330 327 326 328 326 327 325 327 327 326 327 327 327 328
340 339 339 339 331 328 332 329 338 336 334 334 334 334 334 333 332 332 331 328 328 327 326 326 326 326 328 326 327 327 326 326
337 341 340 340 335 327 331 335 336 336 334 333 333 334 333 333 333 331 329 328 328 327 328 327 327 327 328 326 327 325 325 324
328 341 340 339 339 330 328 335 334 332 333 333 331 332 331 332 333 332 331 330 328 327 328 327 327 327 328 326 325 325 324 322
328 340 340 339 339 335 326 323 333 333 332 332 330 331 332 332 331 332 331 330 328 328 327 326 327 327 326 325 324 324 323 322
328 337 339 337 338 336 327 325 322 325 326 325 324 332 332 331 331 330 330 329 328 327 326 326 327 328 325 325 324 323 322 321
328 338 339 337 336 336 328 330 325 322 322 327 324 328 330 331 330 330 329 329 328 327 325 325 325 327 326 324 323 321 320 321
329 337 338 337 335 335 328 330 324 322 320 320 322 327 329 330 328 329 329 329 326 325 325 326 327 325 325 323 321 320 320 320
333 337 337 338 337 335 331 329 326 323 321 321 319 327 327 327 328 328 328 328 326 325 325 326 326 325 324 322 321 321 319 319
335 336 338 337 337 334 330 329 327 326 322 317 324 326 327 327 328 328 327 327 325 326 325 326 325 324 323 322 320 321 320 320
334 335 338 337 335 332 331 330 328 325 323 326 327 327 327 327 327 327 327 326 327 326 326 325 325 324 323 322 320 320 320 320
335 335 336 336 334 332 332 330 326 323 323 325 326 327 327 327 326 326 327 326 326 325 325 325 325 323 323 322 321 319 320 320
336 337 335 336 335 334 332 330 326 324 324 326 327 326 327 327 326 326 324 325 324 325 326 325 323 321 323 322 321 320 322 321
338 336 336 335 335 333 332 330 328 327 325 326 326 326 326 325 325 324 324 324 325 325 325 325 322 322 323 322 320 319 323 322

GFSFLT2_850_thetae_090.txt.gz
Theta_e
322 321 321 322 321 320 320 320 320 323 327 330 332 336 337 337 336 336 336 336 335 334 333 332 331 331 332 332 331 332 333 333
324 322 321 322 322 321 321 321 320 322 326 328 330 334 337 337 336 336 336 336 336 334 331 330 330 329 332 331 333 335 333 332
325 324 323 322 322 322 322 322 321 320 324 327 329 334 337 338 337 336 335 334 332 331 328 327 332 329 328 331 332 332 331 331
331 325 324 323 323 323 323 323 322 319 323 327 329 333 334 333 336 336 333 332 327 327 327 327 329 328 329 330 331 330 330 331
334 333 328 324 323 323 323 323 321 320 326 328 329 330 331 332 333 333 334 330 327 326 328 330 328 328 329 329 329 329 329 329
334 333 336 335 324 324 325 324 321 324 328 329 329 330 330 330 331 332 332 328 327 327 326 328 327 327 328 328 329 329 328 329
337 336 337 338 336 325 327 327 323 326 329 332 331 331 331 331 331 331 332 331 329 327 327 326 327 326 327 327 329 328 328 329
331 338 340 339 338 330 325 328 326 331 331 330 330 332 332 332 332 331 332 332 329 327 328 328 326 326 327 327 328 328 328 327
319 327 340 340 339 334 327 326 326 334 333 332 331 332 332 332 332 331 332 331 327 327 327 327 326 326 328 327 328 328 327 327
319 321 333 338 339 338 330 326 325 331 333 333 331 332 332 332 332 332 332 331 328 328 327 326 326 326 326 327 327 327 326 326
318 318 324 333 337 339 333 328 325 331 331 333 332 332 330 330 326 332 332 330 329 328 328 327 326 327 327 327 327 326 325 324
317 320 322 330 334 338 336 332 326 331 333 333 333 331 329 330 330 330 331 331 330 329 327 327 327 327 327 327 326 325 324 322
317 319 321 330 333 337 335 334 325 328 338 335 332 329 323 331 331 330 330 330 330 329 328 328 327 326 327 327 325 324 323 322
318 319 320 326 330 336 337 334 325 322 325 332 329 327 328 328 330 330 330 329 329 328 328 327 325 326 327 326 321 323 322 321
318 318 319 327 330 334 336 333 329 325 324 327 328 329 326 327 328 330 329 329 329 328 328 327 325 326 325 322 320 320 321 321
319 319 320 326 332 336 336 334 329 326 323 323 323 326 327 327 328 329 328 328 328 328 327 326 325 325 325 324 321 320 320 320
321 322 322 327 336 336 336 334 330 326 323 322 322 321 323 327 327 327 327 328 327 327 325 325 325 326 325 324 321 320 320 319
330 329 326 334 335 337 336 334 330 326 326 324 320 325 325 326 326 328 328 327 327 326 325 326 326 325 324 322 321 320 319 319
336 334 334 334 335 335 335 333 328 326 326 324 322 326 326 326 327 327 326 326 327 326 326 326 325 325 324 322 321 320 319 319
328 331 334 334 336 335 334 331 330 327 324 322 324 325 325 325 326 326 328 327 326 325 325 325 326 323 324 322 321 320 319 318

GFSFLT2_850_thetae_093.txt.gz
Theta_e
323 322 322 320 320 321 320 321 323 325 328 330 334 336 337 337 336 336 335 336 335 333 334 331 331 329 326 328 330 332 332 332
322 322 321 320 320 321 321 321 321 324 326 330 333 335 336 337 336 335 335 336 336 334 334 331 329 328 329 327 329 332 332 331
322 322 321 320 320 320 321 321 322 322 324 327 331 332 333 335 335 335 335 335 336 336 334 332 329 328 328 327 330 331 332 331
326 324 321 321 321 321 321 322 322 321 321 325 328 330 331 334 335 335 336 335 335 334 331 331 330 328 329 328 329 330 332 330
331 330 328 323 322 322 321 322 322 322 320 323 328 329 334 335 334 335 336 334 332 329 328 328 329 327 329 327 328 329 331 330
334 333 330 325 323 323 322 322 322 322 319 323 328 328 332 331 331 332 333 332 332 330 326 326 327 327 328 327 329 329 330 330
335 336 335 334 332 325 323 323 323 322 319 325 327 329 330 330 330 330 331 332 332 327 326 328 328 328 328 328 329 328 329 328
338 336 330 336 336 335 334 324 323 323 321 326 328 330 330 330 330 330 330 331 329 327 327 326 328 328 328 328 328 328 328 328
333 338 337 338 337 337 337 328 325 324 321 325 326 331 332 332 332 331 330 331 330 329 327 327 327 326 326 326 328 327 327 327
315 327 336 335 335 339 338 334 327 325 323 328 328 331 333 332 331 330 330 331 332 330 327 328 327 326 326 326 327 328 328 327
315 316 326 331 334 335 337 338 330 327 325 328 330 331 333 332 331 330 331 331 331 329 327 327 327 326 326 327 327 326 327 326
315 315 317 322 328 332 335 339 334 330 328 326 330 332 332 332 331 328 331 331 331 329 327 327 327 327 326 326 327 326 327 326
314 316 316 319 325 327 335 335 337 332 331 327 329 332 333 331 330 326 328 332 331 330 328 328 327 326 327 327 327 327 327 326
315 316 316 316 318 323 330 330 336 335 329 329 331 334 333 331 330 328 329 330 331 331 330 329 328 327 327 327 326 323 324 326
315 316 317 317 319 327 332 335 334 332 332 329 336 333 332 328 326 327 329 329 330 330 330 329 327 328 327 326 322 322 323 323
314 316 318 319 322 321 326 331 331 330 332 328 326 330 330 329 328 325 327 329 329 329 329 328 328 327 326 326 326 325 323 322
316 316 318 321 319 321 327 334 330 330 329 325 325 327 328 330 325 325 326 329 328 328 328 328 327 327 325 325 325 321 322 321
321 321 321 322 324 323 331 333 331 331 330 325 326 325 325 327 325 324 327 329 326 328 329 327 329 327 326 325 324 320 320 321
334 331 328 327 331 331 333 332 333 332 330 324 323 323 322 321 322 326 327 325 325 326 328 329 327 326 326 325 324 321 321 322
333 337 334 332 333 333 333 334 334 332 330 324 323 321 319 321 325 325 325 325 325 325 324 326 326 325 326 323 323 322 323 321

GFSFLT2_850_thetae_096.txt.gz
Theta_e
330 328 324 324 323 323 323 324 326 329 332 334 336 337 336 335 335 334 334 335 334 333 333 334 334 334 331 329 330 330 331 332
328 326 325 324 322 321 320 320 321 322 325 329 333 336 337 336 336 335 335 335 335 334 333 334 333 331 329 330 327 325 331 331
327 326 325 323 322 321 321 320 320 321 322 325 330 334 336 336 336 336 335 335 335 335 333 334 332 330 329 329 326 324 325 330
326 324 323 322 321 321 321 321 321 320 320 322 324 329 333 335 336 336 335 335 335 335 335 334 332 330 329 329 326 325 327 329
326 324 323 322 321 321 321 321 321 321 321 320 321 325 329 332 335 336 336 335 335 335 334 334 332 330 328 328 327 324 328 329
328 324 324 323 322 322 321 321 321 321 321 321 319 322 326 330 333 336 336 336 335 334 333 332 332 330 329 328 328 325 327 329
335 337 336 334 329 323 322 321 321 322 322 321 318 320 324 328 332 333 333 335 335 332 331 328 328 328 328 328 328 325 327 329
320 333 334 338 333 327 324 323 322 322 322 321 319 320 324 326 329 330 331 333 332 332 332 327 326 327 328 327 328 325 328 329
314 315 328 334 336 334 330 327 324 323 323 322 320 321 324 326 329 330 330 331 331 332 328 326 327 327 328 328 323 324 328 329
314 314 314 318 331 334 335 334 333 328 324 323 322 322 325 328 330 330 330 330 330 329 327 327 327 328 328 328 327 327 327 328
313 314 314 314 321 333 333 332 334 332 328 326 324 324 326 329 330 332 332 331 330 330 328 328 327 328 327 326 325 322 327 327
314 314 314 314 315 331 330 331 332 334 332 328 325 327 328 330 330 332 332 331 331 331 330 328 327 327 327 326 325 323 326 326
315 314 314 314 316 327 330 333 333 333 334 330 327 329 329 329 330 331 332 331 331 332 330 327 328 327 326 326 327 327 326 326
316 315 314 314 314 316 328 325 331 330 336 333 329 328 331 330 330 330 330 328 332 332 330 328 328 327 327 326 326 327 327 326
315 314 313 313 315 317 320 327 331 330 331 332 332 329 329 331 332 330 329 328 328 329 329 328 327 328 327 326 325 325 324 324
317 315 314 314 317 318 320 321 326 323 327 330 330 330 329 330 334 331 328 325 327 327 329 327 327 328 327 327 326 326 324 322
320 319 315 317 318 319 318 320 321 325 331 328 321 327 330 332 333 327 326 325 327 327 328 326 325 327 329 327 327 326 324 324
322 325 317 319 322 321 320 320 324 332 331 330 328 329 330 333 333 327 327 324 325 326 327 324 325 325 328 328 326 326 325 324
322 329 328 328 328 327 323 327 327 331 331 328 331 332 329 334 332 332 326 324 325 325 327 326 325 325 325 326 326 326 325 325
320 326 332 335 337 334 333 332 332 331 332 330 330 329 326 326 328 326 325 323 324 326 324 324 325 323 325 326 326 326 325 325

GFSFLT2_850_thetae_099.txt.gz
Theta_e
337 336 336 336 337 336 333 332 331 329 330 333 336 335 334 333 333 333 334 336 337 335 333 333 333 333 334 331 330 329 330 330
338 337 336 336 335 334 333 332 331 330 330 330 332 335 336 335 334 334 334 335 336 334 333 333 333 334 334 329 327 324 332 330
337 338 338 336 334 332 331 330 328 329 329 329 329 332 335 336 335 335 334 334 335 334 334 333 334 333 331 328 327 326 330 328
336 337 337 335 333 331 328 327 325 324 325 326 327 326 330 334 336 336 335 334 334 334 334 333 333 332 330 329 327 327 326 325
334 335 333 330 329 329 327 324 323 322 321 324 325 325 326 331 334 336 335 335 335 334 334 334 334 333 331 330 329 328 324 324
336 331 329 328 327 325 324 324 322 321 321 322 323 323 322 323 329 333 335 335 335 335 335 334 334 334 329 330 328 327 326 324
314 332 334 331 326 325 324 323 322 321 321 322 322 322 320 321 324 330 333 335 335 335 335 334 334 332 331 329 329 328 327 324
313 314 325 333 335 329 325 323 322 322 322 322 322 322 320 320 324 327 331 333 336 336 335 333 333 332 331 330 329 328 327 325
312 312 313 316 324 335 335 332 324 323 322 322 323 323 321 322 324 326 329 330 333 335 334 333 331 329 327 327 328 328 328 325
313 313 312 312 318 328 335 334 332 325 323 323 323 323 321 323 326 326 328 328 330 333 333 333 331 326 327 327 328 328 328 325
314 314 313 313 313 313 321 332 334 333 328 326 325 324 322 324 326 327 328 329 329 330 331 332 327 328 327 328 328 325 324 323
313 313 314 314 314 313 314 322 334 334 329 331 328 327 323 324 327 329 329 330 330 330 330 328 327 327 328 328 328 328 324 323
316 314 314 314 314 313 314 316 320 333 331 330 331 329 326 325 326 330 329 330 330 330 330 328 328 328 328 328 327 325 325 323
319 318 315 315 314 314 313 315 316 334 333 332 333 331 329 327 327 329 329 330 330 329 331 330 328 328 327 327 326 326 323 323
317 320 317 315 313 325 327 329 333 336 331 329 332 332 331 329 331 330 329 329 329 331 328 330 330 327 328 327 325 326 326 326
315 319 320 316 314 324 329 330 333 329 327 327 329 331 331 330 331 330 330 330 329 331 326 327 328 327 327 327 326 327 326 324
316 317 320 319 319 317 328 327 328 331 330 325 326 327 328 329 322 329 329 330 330 329 327 327 327 327 327 327 327 326 326 325
315 316 319 322 324 317 328 328 329 331 328 326 329 328 326 326 323 325 331 331 328 326 324 326 326 326 326 325 326 327 325 325
314 316 319 324 325 324 330 332 331 330 328 328 330 324 321 323 324 329 331 331 326 325 325 327 326 326 325 326 325 326 326 325
312 315 318 324 329 329 330 331 332 332 332 331 330 325 324 324 325 330 331 330 327 325 324 326 326 326 325 325 325 324 325 325

GFSFLT2_850_thetae_102.txt.gz
Theta_e
333 337 339 340 339 338 338 337 336 336 336 335 335 334 334 335 336 336 334 334 334 333 332 333 333 334 334 335 333 332 337 336
336 338 339 340 340 339 338 338 337 337 337 336 335 335 335 334 334 334 334 334 334 335 334 332 333 333 334 334 332 331 334 332
337 338 339 340 340 340 339 338 337 337 337 336 336 336 335 335 334 334 334 334 334 336 334 333 333 334 334 334 331 333 329 332
335 337 339 340 340 339 339 338 338 337 337 335 335 336 339 340 338 334 334 334 334 334 334 334 333 334 334 333 330 335 333 333
337 336 337 338 338 339 338 337 338 338 337 337 334 338 340 337 340 337 335 335 335 334 334 334 334 334 336 334 335 334 334 333
338 335 333 335 337 336 334 333 332 332 329 327 328 328 339 339 339 340 339 339 340 338 338 336 335 335 335 335 334 334 334 333
325 336 322 334 331 328 328 328 327 326 326 325 327 327 330 336 338 338 340 341 339 338 336 336 335 335 335 335 334 332 333 330
314 321 334 335 334 333 330 325 324 324 323 323 325 327 330 326 327 328 337 341 340 336 336 335 335 334 334 335 332 332 331 328
313 312 314 333 322 329 333 331 325 324 322 323 323 325 326 324 323 325 329 337 338 336 335 335 335 334 333 332 332 331 330 329
313 314 314 313 327 330 334 335 335 334 333 326 323 323 325 325 324 322 326 330 332 332 335 335 335 333 332 332 330 329 329 329
313 313 314 314 314 327 331 332 325 337 336 334 327 323 324 326 324 323 326 332 334 332 335 336 334 331 331 331 327 328 330 328
316 316 314 313 314 320 331 332 319 328 334 335 332 329 324 326 326 324 326 330 331 330 333 333 335 333 331 327 328 330 328 326
316 315 316 317 316 318 327 332 327 316 330 334 333 332 328 326 326 325 327 329 329 329 330 332 333 331 328 328 330 328 328 324
315 315 316 317 318 319 323 330 331 331 332 334 327 334 329 329 329 325 327 329 330 331 330 330 332 329 328 328 329 328 328 326
312 313 313 317 317 318 319 328 331 333 331 328 318 333 331 330 330 327 329 330 331 331 330 331 329 329 328 328 326 327 327 325
314 315 315 317 317 316 320 323 330 331 330 324 322 329 334 332 331 330 329 331 331 331 331 329 330 329 329 329 327 327 326 325
314 315 316 316 317 317 317 322 330 331 332 332 336 331 331 332 330 325 329 328 329 330 330 329 327 328 328 329 328 327 327 326
311 315 316 316 318 319 320 321 327 332 332 332 333 335 332 330 331 331 330 327 323 325 327 329 327 326 327 328 327 327 327 326
311 314 314 316 318 320 323 323 325 333 332 333 332 336 330 330 328 330 329 327 321 322 325 330 328 326 327 327 326 327 326 326
310 314 314 317 318 322 325 326 327 332 331 332 331 334 336 333 329 326 329 322 323 323 328 331 327 324 326 325 325 326 325 325

GFSFLT2_850_thetae_105.txt.gz
Theta_e
350 343 337 339 339 339 337 336 335 334 334 333 333 333 334 335 337 336 336 335 335 335 334 332 332 332 334 337 336 333 335 337
350 348 337 338 339 339 338 337 337 336 335 335 334 334 334 335 336 337 336 335 334 334 333 333 333 333 333 335 336 334 331 338
351 349 347 338 342 340 338 338 338 337 336 336 336 335 335 334 335 336 336 335 333 334 334 335 333 334 333 334 334 333 334 337
347 351 344 341 345 348 341 339 339 338 337 337 337 336 342 342 340 336 335 334 334 333 336 335 334 335 334 334 333 335 337 336
346 347 343 341 340 342 344 345 343 341 339 341 339 341 342 342 342 340 336 335 335 335 334 336 335 336 338 335 333 336 336 336
342 345 346 348 346 342 343 345 343 344 344 342 342 341 340 341 339 341 339 340 338 339 337 337 337 337 338 337 336 336 338 336
321 335 341 345 344 345 345 344 343 335 339 338 341 341 340 340 339 339 340 339 340 339 338 337 337 337 337 337 336 335 336 335
319 319 330 338 341 343 344 343 342 341 342 331 331 331 334 340 340 339 338 340 338 339 340 338 336 336 336 336 335 335 335 333
323 323 318 328 336 339 340 342 341 340 340 340 324 327 327 339 338 338 338 339 336 337 336 337 337 336 335 335 334 335 334 333
323 323 324 320 317 330 336 337 340 340 338 339 333 324 325 329 339 338 338 334 336 336 337 334 336 337 336 335 334 333 335 334
321 322 323 324 319 316 325 333 336 338 339 339 339 333 332 325 333 329 333 334 334 337 335 334 335 334 335 334 333 333 333 331
320 320 320 322 322 319 316 325 331 334 336 338 340 338 333 331 330 326 327 330 333 331 335 333 335 333 335 333 334 333 331 329
319 319 319 319 320 322 322 321 325 331 334 335 338 340 339 337 335 335 327 326 331 330 336 337 333 333 333 332 333 330 329 330
317 317 317 317 318 319 321 322 322 327 331 333 335 338 339 337 336 335 327 326 331 330 337 333 334 333 331 329 330 329 330 329
314 314 315 316 316 317 318 321 321 323 332 333 333 336 336 332 331 335 328 327 328 327 333 329 331 330 331 330 327 328 328 328
312 311 313 313 313 314 315 318 322 320 324 332 333 333 336 337 334 336 332 329 328 326 329 333 331 328 330 331 330 330 329 327
310 309 309 310 309 314 315 315 318 323 323 330 330 333 333 337 335 335 331 332 328 330 333 332 331 329 328 328 329 329 329 329
308 307 307 307 314 316 316 317 317 321 323 329 332 333 332 332 334 335 333 331 329 328 322 329 330 329 328 328 328 329 329 329
306 304 305 310 314 315 315 315 318 318 322 327 332 332 332 331 332 334 332 331 327 320 320 327 331 331 328 328 325 327 328 328
303 302 308 310 312 316 316 318 320 321 321 325 331 333 331 331 332 331 331 331 327 323 321 331 330 330 329 329 326 326 327 327

GFSFLT2_850_thetae_108.txt.gz
Theta_e
350 349 345 340 341 338 338 336 334 334 333 334 336 339 340 340 339 338 337 336 335 335 335 333 334 332 332 333 335 336 333 337
351 350 345 339 339 339 338 336 335 335 334 334 334 335 336 337 336 337 337 337 336 334 333 333 332 332 333 333 335 336 334 331
342 348 348 340 338 339 339 337 336 335 335 334 334 334 334 334 335 336 337 338 336 334 333 333 333 332 333 334 334 334 333 331
345 343 347 347 342 340 340 338 337 337 336 336 335 335 334 334 334 335 336 337 338 335 333 333 334 334 332 333 333 333 333 332
344 343 345 345 347 348 345 341 338 338 338 337 336 336 336 338 339 337 337 336 338 336 334 333 334 334 334 334 334 333 333 334
343 342 342 344 346 346 348 346 343 340 339 338 338 337 337 340 338 340 338 336 336 335 335 334 334 334 335 336 335 335 333 334
321 331 340 342 342 344 344 343 345 344 345 343 339 340 338 338 343 339 341 338 336 336 336 336 336 335 334 335 335 335 335 336
320 320 329 339 340 339 342 344 342 344 343 344 343 342 342 338 339 341 341 341 338 338 335 338 336 336 336 336 336 335 335 334
323 323 321 327 338 338 339 338 340 340 342 340 340 339 340 342 340 341 337 341 339 337 336 338 337 337 336 336 335 335 335 335
323 324 324 321 320 336 338 340 339 340 341 342 340 338 335 336 338 340 339 340 339 339 334 338 337 337 335 336 335 335 334 334
322 322 322 323 320 316 320 335 337 338 338 340 341 340 338 330 333 334 332 338 338 339 337 335 335 335 334 336 334 335 334 333
320 320 320 320 319 319 318 316 319 333 336 340 339 339 339 338 335 339 334 334 332 337 336 333 335 335 334 334 334 334 333 332
318 317 317 317 318 319 320 322 323 323 328 333 340 339 338 339 339 337 339 339 331 333 333 332 334 335 334 333 333 332 331 331
315 315 314 316 317 318 318 318 319 323 323 330 335 333 336 336 339 337 337 337 335 331 328 330 334 331 332 331 331 330 330 331
314 313 313 314 315 316 316 317 317 318 318 323 332 335 332 336 337 337 338 332 327 334 332 329 328 332 331 331 329 328 327 328
312 311 311 312 313 314 314 314 314 317 321 324 321 334 335 332 330 333 337 332 333 329 333 333 329 331 330 330 329 329 328 327
310 309 310 312 313 314 315 315 315 316 317 320 323 326 334 331 332 332 334 332 330 322 332 332 332 329 332 331 329 329 330 329
307 308 310 310 310 313 313 315 317 317 317 318 319 323 325 333 328 330 334 334 332 331 327 327 333 328 327 329 329 327 330 329
305 306 307 305 308 311 312 313 313 315 317 317 320 320 324 328 327 329 333 333 331 330 328 331 329 326 322 320 323 329 328 328
303 303 304 304 307 309 312 312 311 313 317 319 320 321 322 323 323 329 330 331 333 331 331 331 325 321 320 320 329 326 328 329

GFSFLT2_850_thetae_111.txt.gz
Theta_e
338 348 346 342 339 340 340 337 335 333 333 333 336 339 341 341 340 339 337 336 335 334 334 334 332 332 330 330 332 335 333 331
335 337 347 346 340 340 340 337 335 334 334 333 334 337 340 340 340 338 337 336 335 334 334 334 333 332 331 331 331 333 335 332
334 341 341 347 342 339 339 338 336 335 334 334 333 334 335 336 336 335 335 336 335 335 334 333 333 332 331 331 331 331 332 334
343 343 342 344 343 339 338 338 337 335 335 334 333 333 333 333 333 333 334 335 336 336 335 333 333 332 332 331 331 331 332 332
325 341 342 342 345 340 339 339 338 337 336 335 335 334 333 333 333 333 334 335 336 336 336 334 332 332 332 332 331 332 332 332
341 341 343 343 343 345 345 342 341 338 337 336 336 335 335 334 333 333 334 334 335 334 334 334 333 332 331 332 332 333 333 333
336 338 338 342 344 343 344 346 345 344 340 338 338 337 336 335 334 333 333 334 334 334 333 333 333 333 334 333 333 334 334 334
320 320 322 336 341 342 341 342 344 344 344 343 342 341 338 336 336 337 338 335 336 336 332 333 333 334 333 333 334 334 334 335
322 322 321 321 331 340 339 338 341 340 342 343 342 343 342 338 337 336 338 339 339 340 338 332 334 334 334 335 335 335 335 335
322 322 322 321 319 326 335 338 337 337 338 339 339 339 340 340 340 340 337 342 339 341 339 335 336 336 335 335 336 335 335 335
321 321 320 318 316 316 321 331 335 338 337 337 337 338 338 338 339 340 341 342 340 338 338 337 334 338 335 336 336 334 334 335
320 319 319 319 317 315 314 314 318 335 337 338 339 338 338 338 338 339 339 340 341 340 339 338 338 335 337 336 334 333 332 333
317 316 315 314 315 316 316 315 315 315 317 329 335 336 335 335 338 339 338 336 340 340 338 338 337 336 337 336 334 333 332 333
314 313 313 313 314 315 315 316 317 316 315 318 320 327 333 336 335 336 338 338 333 335 336 334 338 335 336 335 333 334 332 331
313 312 311 311 312 314 315 316 316 317 317 317 316 322 330 331 333 334 335 337 337 334 336 334 336 335 331 332 331 330 330 329
311 310 310 311 312 314 315 316 317 317 317 318 318 317 320 324 325 331 331 333 333 332 332 331 325 322 330 331 330 327 327 326
308 308 309 311 312 313 314 315 316 317 317 317 318 318 318 320 323 329 332 330 328 329 331 330 324 324 322 322 329 328 328 326
305 306 308 310 311 312 312 313 315 317 318 317 317 318 319 318 320 324 330 330 328 325 327 330 323 322 322 329 328 328 330 327
304 305 306 308 310 311 310 312 314 315 317 318 317 317 319 320 319 321 327 330 328 328 325 327 328 326 324 327 328 326 328 327
302 303 304 305 307 309 309 310 313 314 315 316 315 317 319 322 321 319 323 324 322 322 325 326 328 327 327 325 327 326 324 326

GFSFLT2_850_thetae_114.txt.gz
Theta_e
325 329 340 345 340 339 339 339 337 334 332 332 333 336 338 339 340 339 337 335 334 332 333 333 332 332 332 330 332 334 333 331
329 330 334 340 344 340 340 340 337 334 333 332 333 334 337 338 339 338 337 335 334 334 333 332 333 332 332 331 331 335 334 332
335 333 340 338 342 343 340 340 338 335 333 333 334 334 335 337 338 338 336 335 335 334 333 332 332 332 331 331 331 332 335 334
333 336 340 339 338 342 341 340 339 336 334 334 334 333 333 335 335 336 335 334 334 334 334 333 333 332 331 331 331 331 333 334
332 337 342 342 341 339 341 341 339 337 335 334 334 333 333 333 333 334 333 333 334 334 334 334 333 331 330 331 331 331 332 333
326 343 341 344 343 342 341 339 339 338 336 335 334 334 333 332 332 332 332 332 332 333 333 333 333 332 331 331 331 331 332 333
335 338 343 344 342 342 342 342 341 341 338 337 336 335 335 334 333 333 332 332 331 332 332 333 333 333 332 332 332 331 332 334
339 337 330 336 341 341 342 343 343 344 345 342 338 337 336 336 336 334 333 332 330 331 331 332 332 334 333 332 332 333 332 333
322 322 322 323 334 339 339 339 341 341 342 342 342 341 340 338 338 337 335 334 333 333 333 336 334 334 333 333 333 334 334 332
322 322 322 321 321 323 333 338 338 338 339 340 340 340 340 341 341 339 337 336 337 339 336 337 338 335 333 333 335 335 335 335
321 321 320 320 319 318 318 324 332 335 337 337 337 337 338 338 338 338 336 334 337 339 340 339 340 337 332 333 335 336 336 335
320 319 318 317 314 314 314 314 315 322 329 335 336 337 336 336 337 338 336 336 337 337 340 340 339 338 334 334 338 336 337 336
318 315 313 313 313 313 313 313 314 314 315 319 327 333 335 336 336 337 338 337 336 336 335 337 339 338 337 336 339 337 336 333
313 312 312 312 312 312 312 313 313 314 315 314 314 318 325 330 331 334 335 336 336 335 334 334 333 333 335 336 336 336 335 332
312 311 311 311 311 312 313 313 314 315 316 316 316 316 315 319 324 328 328 333 334 335 334 333 332 331 332 334 332 332 333 332
309 309 310 310 311 312 313 314 314 314 315 316 317 317 317 317 316 321 325 325 329 332 333 330 330 333 331 325 324 327 329 328
305 306 306 307 309 310 311 312 313 314 314 316 317 318 318 318 318 317 318 322 324 331 331 332 330 332 331 327 326 322 326 325
304 305 306 307 308 309 310 311 311 313 314 316 318 318 319 318 319 319 318 318 320 326 331 331 330 328 330 330 328 324 327 323
304 305 306 306 307 308 309 309 309 311 313 315 316 317 319 320 320 321 321 319 318 323 328 330 330 329 326 325 326 325 323 322
303 303 305 305 306 306 307 308 309 309 310 312 314 315 317 319 320 320 322 323 319 320 325 328 330 328 324 323 325 324 324 323

GFSFLT2_850_thetae_117.txt.gz
Theta_e
326 326 329 337 344 342 339 337 338 337 333 331 332 334 337 338 339 339 337 335 333 331 332 331 331 331 331 330 331 332 331 331
324 328 329 330 335 342 340 339 338 339 334 332 332 333 336 337 338 339 338 337 335 333 332 332 332 331 331 331 330 332 332 331
323 333 333 337 337 341 341 339 340 340 336 333 333 333 334 336 337 338 337 337 336 335 333 333 332 332 331 332 330 330 332 331
321 331 337 341 340 338 343 343 340 340 336 334 333 334 333 335 336 337 338 338 337 336 335 334 333 333 331 331 331 330 331 331
320 321 332 341 342 341 339 342 343 340 337 335 334 334 334 334 335 337 337 337 337 337 336 335 334 333 331 330 331 331 331 331
319 335 338 338 343 343 343 341 342 341 338 336 335 335 335 333 333 334 335 335 334 335 336 335 335 334 333 331 330 331 331 330
320 339 342 339 342 341 341 346 341 340 339 337 336 335 334 334 333 332 332 333 333 333 334 334 335 335 335 333 331 331 331 330
326 338 338 338 339 340 340 340 341 343 342 342 338 336 335 335 334 334 333 333 333 332 332 332 333 335 335 335 333 331 331 331
335 337 332 333 338 341 340 339 339 338 341 341 341 339 337 336 336 335 335 335 334 334 334 334 335 335 336 335 335 333 332 332
336 335 332 326 331 337 337 336 337 337 336 337 338 340 342 341 340 339 337 337 336 335 334 336 335 336 336 335 335 335 333 333
324 322 321 321 321 320 320 322 329 332 332 332 333 333 333 336 339 340 340 338 337 333 333 336 334 337 337 338 336 335 334 333
321 321 320 320 319 318 315 314 315 317 321 324 327 330 331 331 332 335 337 338 336 333 332 331 327 333 334 336 337 334 335 335
317 316 315 313 312 312 312 312 312 313 313 314 315 319 326 330 332 333 334 334 336 336 335 331 328 334 331 326 331 333 331 333
312 312 312 311 311 311 312 312 312 312 312 313 314 314 314 315 321 328 330 331 334 334 336 337 336 335 333 332 333 329 326 330
310 310 311 311 311 311 311 311 312 313 313 313 314 315 316 316 315 315 318 324 326 329 335 337 335 335 335 333 331 331 330 327
306 306 306 306 306 306 306 306 309 310 311 312 313 314 316 317 317 317 316 315 317 322 326 330 333 334 333 333 332 330 329 329
304 305 306 306 306 306 306 307 308 309 311 312 313 313 316 317 318 318 318 318 317 316 318 323 328 330 332 331 332 331 329 324
303 304 305 305 306 306 307 308 309 310 311 311 312 313 313 316 318 319 319 319 319 318 317 318 322 327 329 330 330 330 327 323
301 303 303 304 305 306 307 308 308 309 310 311 311 312 313 314 316 317 319 317 318 320 320 317 319 327 329 329 329 328 328 328
299 300 302 303 304 304 305 305 306 307 309 309 310 310 311 313 314 315 316 318 318 319 322 321 318 325 328 327 328 328 327 327

GFSFLT2_850_thetae_120.txt.gz
Theta_e
324 324 326 332 340 343 341 339 338 338 337 333 332 335 336 337 339 339 336 333 330 329 330 330 331 331 330 329 328 329 331 331
322 322 324 327 329 336 342 341 339 339 339 335 333 334 336 336 338 339 338 336 333 331 330 331 331 331 331 331 329 329 331 331
321 323 330 330 330 333 340 341 340 339 339 337 334 335 336 336 336 338 339 338 336 333 332 331 331 332 331 331 330 328 329 330
320 323 329 333 337 338 337 340 341 339 339 339 335 334 336 337 336 336 338 338 338 336 334 333 332 333 332 332 330 329 328 329
319 322 326 334 340 338 338 336 339 344 340 339 336 335 336 338 337 336 336 337 338 338 336 335 334 333 332 332 331 330 329 328
321 321 323 333 340 341 340 338 338 339 343 340 338 336 336 337 338 337 336 337 338 338 337 336 334 334 334 333 332 330 329 328
320 321 332 340 335 340 341 339 338 339 341 340 338 336 336 336 337 338 337 338 338 339 338 337 335 334 334 334 334 332 330 329
316 318 325 330 337 336 340 336 336 342 339 339 338 337 337 336 336 336 336 336 337 337 336 336 336 335 335 334 334 334 332 331
318 321 325 328 333 333 337 338 338 340 340 339 338 338 338 338 337 337 336 335 334 334 334 334 335 336 336 335 335 335 335 333
334 338 338 335 336 336 337 338 338 337 338 337 337 337 337 336 339 337 337 336 336 335 335 334 334 334 334 335 335 335 335 335
327 327 327 329 332 334 334 334 334 333 332 332 332 333 333 334 334 337 339 339 339 338 335 335 336 333 328 335 332 333 334 333
320 320 320 319 320 320 320 319 318 317 318 322 324 325 327 330 329 330 331 332 334 336 336 335 335 332 327 323 330 331 332 332
314 315 315 314 314 313 313 313 312 312 312 313 313 314 315 317 322 326 327 328 329 332 333 334 334 332 330 326 329 327 326 329
310 310 311 310 311 311 311 311 311 311 311 312 312 313 313 314 314 314 315 318 324 327 331 334 334 336 329 332 327 326 324 324
305 306 308 308 309 310 310 310 311 311 311 311 312 312 313 313 314 315 315 314 314 316 323 326 331 331 333 334 332 331 330 330
303 304 305 304 305 306 307 306 306 306 306 306 309 311 312 313 315 316 317 316 316 316 315 317 323 329 330 331 334 332 331 330
302 303 306 304 304 304 306 306 306 307 307 308 308 310 312 313 313 316 318 318 318 318 317 317 316 320 327 328 328 333 331 330
302 302 303 304 305 304 305 306 307 307 308 309 309 310 311 312 313 314 316 317 318 317 317 318 318 316 318 326 326 328 330 330
302 302 302 302 303 303 303 304 306 306 307 308 309 310 311 312 312 313 313 315 316 316 315 316 318 319 317 320 323 328 329 329
301 302 302 302 302 301 299 302 303 305 306 307 307 307 308 310 310 310 311 312 312 313 315 315 316 318 321 318 320 322 326 328

GFSFLT2_850_thetae_123.txt.gz
Theta_e
324 325 325 331 340 341 340 339 338 338 338 336 334 334 335 336 337 336 334 331 328 328 329 329 329 330 329 329 328 328 329 330
323 326 326 327 330 335 342 341 340 338 338 338 336 334 334 335 336 337 336 335 333 330 330 330 330 330 330 329 329 328 328 330
321 323 326 329 333 332 335 339 341 340 339 339 338 335 334 334 335 336 337 336 335 333 332 332 332 332 331 330 330 329 328 329
319 322 327 332 333 334 336 338 340 340 340 339 339 336 334 335 335 334 336 336 336 335 334 334 334 333 332 331 330 330 329 328
317 318 323 329 337 339 338 337 337 340 341 339 339 338 335 335 337 336 335 336 337 336 335 335 336 334 333 331 330 330 329 329
318 317 321 326 334 340 340 337 337 336 337 343 340 339 337 335 337 338 336 335 336 337 337 337 336 335 334 333 331 331 330 329
318 316 316 327 329 337 336 341 340 338 337 339 342 340 339 337 336 337 338 336 335 336 337 338 338 337 335 334 333 332 331 330
317 317 316 333 332 328 328 331 339 336 335 338 340 339 339 340 338 338 338 339 338 337 337 338 338 338 337 336 334 334 333 332
317 318 316 323 330 329 330 326 329 335 335 336 337 338 338 337 337 339 337 338 340 339 336 337 338 339 338 337 336 334 333 333
327 329 331 337 337 333 333 333 331 332 334 332 333 333 334 334 334 333 336 337 337 337 335 335 335 335 335 336 336 334 334 330
323 325 327 328 330 331 331 332 333 333 333 333 333 333 333 333 334 334 334 335 338 337 337 336 336 335 335 335 335 336 334 334
315 316 318 319 320 321 320 320 321 321 322 323 323 323 325 326 328 329 330 331 333 335 336 336 336 335 335 335 335 333 334 330
311 310 312 312 313 314 313 312 312 313 313 313 313 313 313 314 315 317 320 324 326 328 330 331 333 335 335 332 325 327 328 325
307 307 307 308 309 310 310 310 311 311 311 312 312 312 312 312 313 313 314 314 314 317 323 327 330 332 334 333 331 328 328 327
304 304 305 306 306 306 307 308 308 308 308 309 310 311 312 312 313 313 314 315 315 315 315 317 323 330 331 331 330 329 329 328
303 304 305 306 306 306 306 306 306 305 306 307 308 309 310 311 312 312 314 315 316 316 316 315 315 320 328 332 329 330 330 331
303 303 302 304 305 307 307 306 305 304 303 306 307 308 309 310 311 312 313 315 316 317 317 317 316 315 317 326 329 330 328 329
305 304 304 303 304 307 307 304 305 304 305 305 307 307 308 309 310 311 312 312 314 315 315 314 315 316 316 316 323 327 328 326
302 304 304 304 303 303 302 304 304 304 302 305 305 305 306 307 308 310 311 311 311 312 314 314 314 313 314 317 317 319 324 324
299 299 300 301 302 302 303 299 301 302 303 302 301 301 302 303 305 306 308 309 309 311 311 312 313 314 313 315 316 318 318 321

GFSFLT2_850_thetae_126.txt.gz
Theta_e
326 327 331 337 340 340 340 340 340 338 337 337 336 335 335 335 335 334 332 329 327 326 326 327 328 328 329 329 328 329 336 338
328 328 329 334 338 341 341 340 340 339 338 338 337 335 334 334 335 335 334 333 331 329 328 328 329 329 330 330 329 329 329 338
319 324 328 329 331 334 337 340 342 340 339 339 339 337 335 334 334 334 335 334 333 332 330 330 330 331 331 331 330 331 337 337
317 317 318 324 331 332 333 335 335 338 341 340 339 339 341 342 340 334 335 335 334 333 333 333 333 337 336 331 331 336 338 337
319 318 317 318 330 337 335 342 343 342 341 342 341 339 339 338 339 339 334 335 335 335 334 335 335 340 339 339 338 338 338 337
317 318 319 325 339 342 344 344 341 338 337 337 341 341 340 340 338 337 340 342 341 341 340 340 340 340 342 340 340 339 337 336
315 317 318 326 339 343 342 342 339 338 337 336 337 340 342 341 339 337 340 339 339 339 339 340 340 339 339 340 341 340 339 337
315 316 318 317 340 344 343 342 341 339 339 336 331 337 341 341 340 339 338 339 341 339 336 337 339 339 339 339 339 340 340 339
318 319 320 321 338 341 344 339 335 333 338 335 332 332 334 338 339 339 338 337 338 339 340 338 338 340 339 338 338 338 338 339
321 322 325 327 326 335 338 338 337 337 337 335 334 333 336 336 334 334 334 333 335 337 337 337 339 341 340 339 338 338 337 337
319 321 323 325 327 328 328 330 332 333 333 333 335 335 334 334 334 335 334 334 334 333 335 337 337 337 336 337 337 335 334 335
314 316 317 319 321 321 320 319 321 323 323 325 325 324 325 324 324 325 327 327 329 331 335 335 338 338 338 336 336 336 335 335
310 310 312 315 314 313 314 314 312 312 312 313 313 313 313 314 314 315 316 318 321 324 326 328 331 334 334 335 336 332 330 330
306 307 307 308 309 310 309 309 310 310 310 309 310 311 312 312 312 313 313 313 314 314 317 321 326 329 332 335 334 334 334 332
303 305 305 306 306 306 305 306 305 306 307 307 308 308 309 310 311 312 313 313 314 314 315 315 319 323 329 332 332 332 331 330
303 304 304 304 305 306 307 304 304 305 304 306 306 307 308 308 309 310 311 312 313 314 315 315 315 315 320 329 330 330 330 329
303 301 303 304 304 304 304 306 306 305 303 305 306 306 306 308 308 309 309 311 312 312 313 314 315 315 315 319 325 328 330 331
300 300 302 303 303 304 303 302 303 306 307 303 305 305 304 305 306 306 308 309 310 310 310 312 314 314 314 316 316 320 325 328
297 297 297 299 301 302 302 302 303 303 305 308 306 306 303 303 302 305 305 307 308 307 309 310 312 313 313 313 314 316 318 321
296 295 296 299 299 300 298 300 298 299 300 302 303 304 300 301 302 300 301 302 303 304 305 307 309 310 311 312 313 313 315 317

GFSFLT2_850_thetae_129.txt.gz
Theta_e
349 350 337 339 340 340 340 340 340 339 338 337 335 335 335 335 334 332 330 329 327 326 326 326 327 327 327 328 328 328 331 338
339 345 343 347 337 337 337 339 340 340 340 339 337 336 335 334 335 335 333 332 331 328 327 326 327 328 328 329 329 329 329 338
320 324 338 344 347 346 336 336 339 341 340 339 339 338 337 336 334 334 334 334 334 332 330 328 328 329 329 330 330 330 334 336
322 323 320 338 341 343 345 342 337 337 340 341 341 340 342 343 343 337 334 334 334 334 333 332 330 331 333 331 331 331 338 337
327 329 331 332 338 340 342 343 344 345 345 344 344 345 343 343 344 342 340 335 334 335 334 334 332 337 339 340 339 336 338 336
324 320 318 324 335 340 340 340 341 341 343 341 342 341 342 340 341 342 342 343 340 339 339 339 338 340 341 340 341 340 337 336
315 314 316 318 325 337 340 343 343 342 342 341 343 341 339 340 341 340 341 341 341 341 340 339 339 340 341 340 339 340 338 338
313 315 316 318 321 335 341 340 341 342 341 341 341 340 338 336 340 338 339 340 340 339 339 339 339 339 339 339 340 340 340 339
314 319 321 322 324 332 336 338 338 339 343 342 340 336 332 334 337 339 339 338 339 339 339 339 339 338 337 338 339 339 339 339
316 318 320 322 324 326 330 334 333 334 335 336 338 336 333 333 337 338 335 337 339 338 338 336 337 338 339 337 336 338 339 339
316 317 317 318 321 323 326 326 325 327 328 331 332 333 334 333 333 332 332 333 333 333 336 335 335 335 333 337 338 339 339 338
312 315 316 315 314 315 318 321 320 320 319 321 323 325 327 328 323 323 323 323 324 327 328 329 331 334 335 334 336 337 337 337
307 309 310 310 311 311 310 312 314 313 314 313 313 315 314 315 317 317 317 316 317 319 321 323 325 329 331 334 331 334 331 337
306 306 306 306 306 306 306 308 309 309 309 309 309 309 310 311 311 312 312 312 313 313 313 314 317 322 326 327 330 330 331 332
305 305 304 304 306 305 306 307 307 306 306 306 306 306 306 307 308 309 310 310 311 312 313 313 314 314 320 325 327 328 329 330
303 303 302 302 304 304 305 305 306 306 305 305 304 304 304 306 307 308 308 309 309 310 311 311 312 314 315 317 321 323 326 330
302 302 302 300 303 304 303 302 301 302 302 303 303 302 304 305 306 307 307 308 309 309 310 310 310 311 313 314 315 318 321 325
302 302 301 300 299 298 300 300 301 302 302 302 300 299 299 304 305 306 306 306 306 307 308 307 308 309 312 312 312 314 316 319
299 300 299 298 297 297 297 296 296 296 298 299 300 298 299 298 303 304 305 305 303 304 304 306 305 306 308 311 311 313 314 314
297 298 298 296 296 295 296 296 296 293 296 297 298 298 298 298 300 301 303 301 301 301 303 302 303 304 305 307 307 309 312 313

GFSFLT2_850_thetae_132.txt.gz
Theta_e
348 344 333 337 339 338 339 339 339 339 338 337 336 335 335 335 335 334 331 329 327 326 325 325 326 327 327 327 327 328 327 334
323 339 345 346 337 338 339 340 340 340 340 340 338 337 336 335 335 335 335 333 331 329 328 326 326 326 327 327 328 328 328 327
324 323 330 340 344 344 345 342 339 340 340 340 340 339 338 337 335 335 335 335 334 332 331 329 328 327 327 327 328 328 329 328
325 324 322 321 336 341 341 342 336 335 336 339 340 340 339 339 340 340 340 335 334 334 334 333 331 329 328 328 328 328 329 328
325 323 321 323 328 338 341 345 342 343 341 338 335 341 341 343 342 342 341 342 341 335 334 334 334 333 331 330 333 336 336 330
318 315 316 317 322 336 340 340 340 345 345 339 339 339 341 339 340 340 340 340 340 340 337 334 335 335 335 333 338 340 340 333
313 313 312 314 317 324 336 341 341 340 340 340 340 337 338 339 339 338 336 336 339 339 341 339 339 338 337 336 338 342 342 339
314 315 316 317 319 320 330 338 340 341 339 337 338 336 335 334 335 334 338 335 337 337 338 338 338 338 337 337 338 338 341 341
315 317 319 320 322 324 327 332 336 338 338 336 337 336 339 338 335 335 333 338 337 335 336 337 337 337 337 337 337 338 337 339
313 316 316 318 320 322 324 326 328 331 333 334 333 333 332 335 334 332 331 334 332 334 334 334 335 336 336 335 337 338 338 337
311 314 314 314 315 316 319 321 324 324 326 329 328 329 330 329 329 326 328 329 329 329 330 331 331 330 331 333 333 333 327 334
309 310 311 311 311 312 312 313 315 317 317 318 319 320 323 327 327 328 328 326 325 326 326 326 325 325 325 327 327 329 330 331
308 307 307 308 308 309 308 310 310 311 310 312 312 313 314 313 314 314 315 316 315 313 313 313 314 316 321 322 319 321 324 330
307 306 306 307 307 307 308 308 309 308 308 307 306 307 307 307 308 308 309 310 311 311 311 312 312 313 315 319 323 320 323 328
305 305 305 306 307 307 307 307 308 308 307 306 305 305 304 305 305 306 306 307 308 308 308 309 309 309 311 315 319 324 322 321
304 304 303 302 304 306 305 305 305 304 305 305 304 304 304 306 306 305 305 306 307 307 307 308 308 309 310 311 315 315 318 320
304 304 302 301 300 301 303 303 303 302 304 304 304 303 304 306 307 307 307 306 305 306 306 307 307 307 306 308 309 311 313 316
301 302 301 299 298 298 300 300 299 298 300 300 302 302 302 302 304 304 305 305 304 304 305 305 305 304 304 305 307 309 311 311
300 300 299 298 297 298 298 298 297 296 297 298 297 299 297 297 300 301 302 302 303 302 303 303 303 302 302 303 304 306 307 308
299 299 298 298 297 297 297 297 296 294 294 295 294 295 293 293 295 296 297 298 299 300 299 299 300 301 302 303 303 304 304 305

GFSFLT2_850_thetae_135.txt.gz
Theta_e
341 342 342 344 341 339 338 338 338 339 338 337 336 335 335 335 335 334 333 332 329 326 325 326 325 325 326 326 326 326 326 330
335 339 338 339 338 341 341 340 338 339 339 339 339 338 337 336 335 335 335 335 333 331 329 326 326 325 325 325 326 326 325 326
324 324 337 341 342 339 347 345 343 334 333 336 338 339 339 338 337 336 335 335 335 335 333 331 330 327 326 326 326 325 326 326
324 323 322 322 338 340 342 342 342 348 344 339 334 333 338 339 339 338 338 339 338 335 335 334 332 332 330 327 326 326 326 326
323 322 321 320 324 336 341 345 345 342 340 344 343 342 339 338 341 343 343 342 341 340 339 335 334 334 333 332 330 328 327 327
314 312 312 313 316 321 336 340 341 343 343 342 341 338 339 340 339 337 337 339 339 337 339 339 338 336 334 334 333 332 330 332
312 312 312 312 313 316 320 335 338 340 341 341 340 339 335 334 335 336 334 335 335 335 336 337 338 337 337 335 334 334 333 334
314 314 315 316 315 317 320 325 329 333 336 338 338 338 337 336 336 334 334 332 336 336 336 337 337 337 337 337 337 337 336 336
314 316 316 317 318 320 321 323 327 328 329 331 332 334 335 335 335 335 334 333 332 331 333 334 335 336 336 337 337 336 336 336
312 314 315 315 317 318 319 321 322 324 324 327 328 330 331 332 332 331 329 330 328 327 329 328 328 331 331 330 331 333 332 330
310 310 311 311 312 314 315 315 316 318 320 320 322 323 326 328 328 329 328 327 328 327 327 327 327 328 329 326 322 322 325 327
309 309 309 310 310 309 311 310 311 311 311 312 314 314 315 318 320 324 324 327 325 325 324 324 325 324 321 316 312 311 313 317
309 309 309 308 309 309 309 309 309 308 309 309 308 308 310 309 310 309 311 313 311 312 312 312 311 311 311 311 310 310 312 316
307 307 308 308 308 308 308 308 308 307 307 307 307 306 306 305 306 306 307 307 307 307 307 308 308 308 309 310 312 310 315 320
305 305 305 306 307 307 307 307 308 308 307 306 306 306 308 308 307 307 306 305 306 306 306 306 307 307 308 310 314 316 314 310
304 303 302 303 304 305 305 306 306 305 305 305 304 304 305 306 306 307 308 308 308 306 306 305 306 306 306 310 310 310 312 311
303 303 301 300 300 301 302 303 302 302 302 302 302 303 302 303 303 303 304 305 305 305 305 304 304 304 304 304 305 308 309 310
301 301 300 300 300 300 301 301 301 301 301 301 301 300 300 301 301 301 300 301 302 303 303 302 301 301 301 302 303 304 306 307
300 300 300 299 300 300 300 301 301 301 300 299 298 297 296 296 296 296 297 296 299 299 298 298 299 299 299 300 301 302 302 303
299 299 299 300 300 299 299 299 299 298 298 297 295 294 293 293 293 293 294 294 294 295 295 297 299 299 300 300 301 301 302 302

GFSFLT2_850_thetae_138.txt.gz
Theta_e
340 339 342 344 343 341 341 340 338 338 338 337 336 335 335 335 334 334 334 333 332 330 328 326 325 325 325 326 326 326 326 327
335 337 338 341 340 341 345 346 344 343 339 338 338 338 338 337 336 335 335 335 335 334 333 331 329 327 326 325 325 326 326 326
324 326 333 338 340 337 340 344 342 339 337 338 339 338 339 339 338 337 337 336 335 335 335 335 334 333 331 329 327 326 326 325
322 322 322 322 325 338 339 340 337 338 338 341 339 338 339 339 339 339 338 338 338 337 338 336 335 335 334 333 332 329 326 325
321 319 318 317 318 323 334 340 341 340 340 341 342 342 342 344 341 344 343 342 339 341 341 340 339 338 335 334 334 333 333 330
312 311 311 312 313 315 318 330 338 340 341 342 340 339 339 341 341 342 340 339 339 337 338 339 337 337 338 337 336 334 334 334
311 311 312 313 314 315 316 318 327 334 337 339 341 340 340 339 335 334 334 337 336 336 336 335 336 336 336 337 336 336 335 334
312 313 314 315 315 317 319 320 322 324 329 335 337 337 338 337 337 336 335 333 332 333 334 335 336 336 336 336 335 336 336 336
312 314 314 315 317 317 318 320 321 323 325 326 329 331 333 334 334 334 333 331 331 331 332 329 330 331 332 333 334 334 334 334
312 313 313 314 314 315 316 316 317 318 320 321 323 325 327 329 330 330 330 330 329 330 329 329 327 327 328 327 328 328 326 327
310 311 311 311 312 312 312 312 312 313 313 315 317 318 319 321 323 326 327 327 326 326 327 327 327 327 326 326 327 324 316 313
310 309 309 309 309 310 309 309 310 310 311 312 312 312 312 312 312 313 316 320 324 321 320 322 322 323 323 320 316 311 311 311
309 309 309 309 308 308 309 309 309 309 309 309 308 308 308 307 307 306 307 308 309 310 311 312 310 310 311 311 310 310 310 311
308 308 307 308 308 308 308 308 308 307 307 307 307 308 308 308 308 307 307 306 305 306 306 306 307 306 306 307 309 311 310 312
307 305 305 305 306 306 307 307 307 307 307 306 306 306 307 307 307 308 308 308 309 309 308 307 306 306 306 308 310 311 311 317
304 302 301 301 302 303 303 304 304 303 302 302 302 302 303 303 304 304 305 306 306 306 306 306 305 306 305 308 308 307 308 308
303 301 301 300 300 300 300 301 301 300 301 301 301 301 302 302 302 303 303 302 302 303 303 303 302 301 302 302 304 306 307 307
302 301 300 300 300 300 300 300 301 301 301 301 301 301 301 301 301 300 300 301 300 298 298 298 299 299 299 299 301 302 304 305
301 301 300 300 300 300 301 301 301 301 301 301 300 299 299 298 297 297 296 295 295 295 295 296 297 297 298 299 299 300 301 302
300 300 300 300 300 300 301 301 301 301 300 299 298 296 296 296 296 295 294 295 294 294 296 296 295 296 296 298 298 298 300 300

GFSFLT2_850_thetae_141.txt.gz
Theta_e
341 342 341 340 338 337 337 338 338 338 338 337 337 336 335 335 334 334 333 333 332 332 331 330 328 326 325 325 326 326 326 326
337 337 339 340 340 340 340 339 339 338 337 337 338 338 338 337 336 335 335 335 335 335 335 334 333 332 331 329 327 325 324 324
326 329 331 335 337 338 338 338 343 341 336 334 335 336 337 338 338 338 337 336 335 335 335 335 335 335 335 333 333 331 328 325
322 322 322 321 321 327 336 337 336 339 338 338 338 337 337 337 338 338 338 338 337 338 340 340 339 337 336 336 335 334 333 332
320 319 318 318 317 318 321 332 336 338 337 339 342 341 339 339 338 338 342 340 339 338 339 338 338 339 337 336 337 336 334 334
313 311 311 311 312 313 315 319 327 336 338 338 341 342 344 343 340 339 338 339 339 337 336 334 335 336 336 336 336 336 336 337
312 311 311 311 312 313 314 316 318 323 331 337 337 338 338 337 339 338 336 335 337 336 335 335 335 335 334 334 334 335 336 336
311 311 312 313 313 314 315 317 318 320 323 328 331 335 335 336 336 337 336 335 334 333 331 332 332 331 331 333 333 332 333 333
311 311 312 313 314 315 315 316 317 319 320 323 324 327 329 332 332 332 333 332 332 331 329 329 330 330 329 326 327 326 327 330
311 311 312 312 313 313 314 314 315 316 318 319 320 322 323 324 325 326 328 329 329 329 329 328 327 326 327 326 327 325 324 324
310 310 311 311 311 311 312 311 312 312 312 313 314 315 316 318 320 321 322 323 324 325 325 325 325 323 323 324 325 327 325 325
309 309 310 310 310 310 310 310 310 310 310 310 310 310 310 310 310 312 313 314 314 314 315 315 316 316 316 317 318 319 318 314
308 309 309 309 309 309 309 309 309 309 309 309 308 308 308 308 307 307 307 307 307 308 309 310 309 308 308 310 311 310 310 310
308 309 309 308 309 309 309 308 308 308 307 307 306 306 306 307 308 309 309 308 308 308 308 307 307 306 306 306 307 310 314 316
308 307 305 305 306 306 306 306 306 306 305 303 303 303 303 303 303 303 304 305 307 308 309 309 309 309 306 306 307 308 308 313
306 303 301 301 301 302 303 303 303 302 301 301 301 301 301 302 302 302 303 303 303 303 304 305 305 304 306 305 304 305 306 306
303 301 300 300 300 300 300 300 300 300 300 300 301 301 301 302 302 302 302 301 302 302 301 300 299 300 300 300 302 303 303 304
303 301 301 300 300 300 300 300 301 301 301 301 301 301 301 301 301 300 300 299 298 297 296 296 297 297 298 298 299 298 300 301
303 301 300 300 300 300 301 301 301 301 301 301 300 301 300 299 298 298 297 296 296 295 295 296 296 297 298 298 298 298 298 298
302 301 300 300 300 300 301 300 300 300 300 299 299 299 298 297 297 297 296 296 297 297 297 296 295 296 296 296 296 296 296 296

GFSFLT2_850_thetae_144.txt.gz
Theta_e
338 337 337 337 337 336 336 336 335 335 335 335 335 335 335 335 335 335 334 334 334 333 333 332 332 331 329 327 326 326 325 325
337 337 339 339 339 338 338 337 337 337 337 337 337 337 337 336 335 335 335 335 336 336 335 335 335 335 335 333 332 330 326 325
332 332 332 332 334 335 337 338 338 337 337 336 336 337 337 337 337 337 337 336 336 335 335 335 335 335 335 335 335 334 333 331
322 322 321 321 321 321 324 331 332 332 337 337 333 335 336 337 337 337 337 337 337 337 337 337 337 337 338 338 337 336 335 334
321 320 317 315 316 318 319 321 325 330 333 336 337 340 340 338 338 338 337 339 339 337 337 338 337 336 335 336 337 336 335 336
315 314 313 312 311 311 313 316 320 326 332 335 336 339 338 338 338 337 338 338 336 337 336 337 336 334 333 333 334 335 335 336
315 313 311 311 311 312 312 313 315 318 324 328 332 333 334 335 335 335 335 335 336 334 335 334 333 332 332 332 331 332 333 333
314 312 311 311 311 312 313 313 315 316 318 321 326 328 330 331 331 331 332 333 333 332 333 333 332 331 330 329 329 327 325 326
312 311 311 311 311 312 313 314 315 316 317 318 320 322 325 327 327 328 329 329 328 328 329 329 328 328 327 326 327 328 328 325
311 310 310 311 311 311 312 312 313 313 314 315 316 317 319 320 321 322 323 323 324 325 326 327 326 327 327 324 323 323 325 325
310 310 310 310 310 311 311 311 311 311 311 311 311 311 312 313 314 315 315 315 315 316 315 316 316 318 320 321 321 320 320 324
309 309 309 309 310 310 310 310 310 310 310 310 309 309 309 309 310 310 310 310 310 310 310 309 309 310 312 313 315 316 315 316
308 308 309 309 309 309 309 310 309 308 308 307 307 307 307 308 309 309 309 310 309 309 309 308 308 307 308 309 310 311 310 310
308 308 308 309 309 309 308 308 306 305 304 303 303 303 303 303 303 303 303 304 304 305 307 308 309 308 308 308 308 309 312 317
308 308 307 307 307 307 306 304 304 303 302 301 301 301 301 301 301 301 301 302 302 303 303 303 303 305 305 305 305 305 307 308
307 306 305 304 304 303 302 302 301 300 300 300 301 301 301 301 302 302 302 302 302 302 302 302 301 299 302 303 302 302 304 305
306 303 301 300 300 300 300 300 300 300 301 301 301 301 302 302 302 303 303 303 303 302 301 300 297 297 297 298 299 301 302 302
304 302 300 300 300 300 300 300 301 301 301 301 301 301 302 302 302 302 302 302 300 300 297 297 297 297 297 297 298 297 298 298
304 301 300 300 300 300 300 300 301 301 301 301 301 301 301 301 301 301 300 300 299 298 298 297 297 298 297 298 298 297 297 298
303 301 300 300 300 300 300 300 300 300 300 300 300 300 300 299 299 298 298 298 298 297 297 296 296 296 296 295 295 295 294 295

GFSFLT2_850_thetae_147.txt.gz
Theta_e
336 336 336 336 336 335 333 333 333 333 333 333 334 334 334 335 335 335 334 334 333 333 333 332 332 332 331 329 327 326 327 326
337 337 336 336 336 336 336 336 336 336 336 336 336 336 335 335 335 336 336 336 335 335 335 335 335 334 334 334 333 332 330 328
333 332 331 330 330 331 333 336 337 337 337 337 337 337 337 337 337 336 336 336 336 335 335 335 335 335 335 335 335 335 335 334
326 323 322 321 321 321 322 327 332 334 335 337 337 336 336 337 337 337 337 337 337 337 337 337 337 337 338 338 338 337 337 336
321 320 319 317 315 315 317 319 323 326 328 332 336 338 340 340 337 337 337 336 338 337 336 335 336 337 337 336 335 336 336 336
321 318 315 315 313 312 311 313 317 321 325 327 331 336 336 336 336 336 336 335 335 337 334 336 335 335 334 333 332 332 332 332
316 315 314 312 310 311 311 311 313 314 318 321 325 330 331 333 334 334 334 333 333 334 334 334 334 333 332 331 330 329 329 328
314 314 312 311 311 311 312 312 313 314 315 317 320 325 328 329 329 329 330 330 331 331 331 330 331 330 329 328 327 327 327 326
314 313 310 310 311 311 312 313 314 315 315 316 318 319 321 323 326 327 326 326 326 326 326 326 325 327 328 328 327 327 325 323
313 311 310 310 310 311 311 311 312 312 313 313 314 315 316 317 317 318 318 318 318 319 319 319 320 321 320 320 322 324 322 322
312 311 310 310 310 310 310 310 310 310 310 310 310 310 310 310 311 311 311 311 311 312 312 312 313 313 314 314 315 315 316 318
312 310 309 309 309 310 310 310 310 310 310 309 308 308 308 308 309 309 309 309 310 310 310 310 310 310 310 310 311 311 311 313
310 309 309 309 309 309 309 309 309 308 306 305 304 304 303 304 304 304 304 304 304 304 305 305 306 307 308 309 310 310 309 311
309 308 308 308 309 309 309 308 306 304 303 302 301 301 301 301 301 301 301 301 301 301 301 302 302 303 304 305 310 309 309 311
309 308 308 308 308 308 307 305 303 302 301 301 301 301 301 302 302 302 302 302 302 302 302 302 301 302 302 303 305 307 306 308
308 308 308 308 307 307 305 303 302 301 301 301 301 301 302 302 302 302 302 303 303 303 303 303 303 302 302 300 301 301 302 304
308 307 306 306 305 303 302 301 301 300 301 301 301 301 301 302 302 302 302 302 303 303 303 304 304 302 300 299 299 298 300 300
307 305 303 302 301 301 300 300 300 301 301 301 301 301 301 301 301 301 301 301 302 302 302 301 301 299 298 298 298 298 298 298
306 303 301 300 300 300 300 300 300 301 301 300 300 300 300 300 300 300 300 300 300 300 300 300 299 299 298 298 298 297 295 295
306 303 300 300 300 300 300 300 300 300 300 300 300 299 299 299 298 298 298 298 297 296 295 295 296 297 297 297 296 295 295 294